Regional Weather Roundup
Issued by NWS

Home | Current Version | Previous Version | Text Only | Print | Product List | Glossary Off
Versions: 1 2 3 4 5 6 7 8 9 10 11 12 13 14 15 16 17 18 19 20 21 22 23 24 25 26 27 28 29 30 31 32 33 34 35 36 37 38 39 40 41 42 43 44 45 46 47 48 49 50

000
ASUS43 KLOT 161406
RWRIL

ILLINOIS REGIONAL WEATHER ROUNDUP
NATIONAL WEATHER SERVICE CHICAGO/ROMEOVILLE IL
900 AM CDT TUE SEP 16 2014

NOTE: "FAIR" INDICATES FEW OR NO CLOUDS BELOW 12,000 FEET WITH NO
SIGNIFICANT WEATHER AND/OR OBSTRUCTIONS TO VISIBILITY.

* THESE STATIONS ARE NOT UNDER NWS QUALITY CONTROL. THEY ALSO MAY NOT
  REPORT WEATHER SUCH AS PRECIPITATION OR FOG.

ILZ001-002-007-009-015-016-024-161500-
NORTHWEST ILLINOIS

CITY           SKY/WX    TMP DP  RH WIND       PRES   REMARKS
MOLINE         SUNNY     52  47  83 CALM      30.25S
STERLING*      SUNNY     52  45  76 CALM      30.24S
SAVANNA*       SUNNY     49  47  95 CALM      30.24S
$$

ILZ003-004-008-010-011-017-018-161500-
NORTH CENTRAL ILLINOIS

CITY           SKY/WX    TMP DP  RH WIND       PRES   REMARKS
ROCKFORD       SUNNY     51  45  79 CALM      30.25R
FREEPORT*      SUNNY     47  45  90 CALM      30.26R
ROCHELLE*      SUNNY     46  46  97 CALM      30.24S
DE KALB*       SUNNY     49  44  83 N3        30.23S
PERU*          SUNNY     48  47  98 CALM      30.24S
$$

ILZ005-006-012>014-019>023-161500-
NORTHEAST ILLINOIS

CITY           SKY/WX    TMP DP  RH WIND       PRES   REMARKS
CHICAGO-OHARE  MOSUNNY   53  45  74 N5        30.21S
CHICAGO-MIDWAY MOSUNNY   56  48  74 NW5       30.21S
AURORA         SUNNY     51  45  79 CALM      30.23S
LANSING*       SUNNY     55  50  84 NW5       30.21S
JOLIET*        SUNNY     51  46  84 CALM      30.23S
WAUKEGAN       SUNNY     54  44  69 VRB3      30.21R
DUPAGE AIRPORT SUNNY     53  46  77 N5        30.22R
KANKAKEE*      SUNNY     53  49  87 CALM      30.22S
WHEELING       SUNNY     55  45  68 CALM      30.23R
MORRIS*        SUNNY     51  49  90 CALM      30.22S
ROMEOVILLE*    SUNNY     51  47  87 CALM      30.23R
NORTHERLY ISL    N/A     56  47  71 W3          N/A
$$

LMZ740>746-161500-
SOUTHERN LAKE MICHIGAN

STATION/POSITION SKY/WX   TEMP    WIND        PRES    VSBY  WAVE
                          AIR SEA DIR/SP/G                  HT/PER
                          (F)     (DEG/KT/KT) (MB)    (MI)  (FT/S)
SOUTHERN BUOY              58 64  330/ 10/ 14 1022.5R         2/ 4
WAUKEGAN HARBOR            54     330/  6/ 10   N/A
HARRISON CRIB              52     300/  7/  9   N/A
BURNHAM HARBOR             57      CALM  /  4   N/A
CALUMET HARBOR             53     240/  1/  3   N/A
MICHIGAN CITY              56     160/  4/  5   N/A
MICHIGAN CITY 6N           57 64  200/  6/  8   N/A           2/ 4
ST. JOSEPH                 58 66  140/  4/  6   N/A           1/ 4
$$

ILZ025>027-034>036-040-047-049-050-058-095>099-161500-
WEST-CENTRAL ILLINOIS

CITY           SKY/WX    TMP DP  RH WIND       PRES   REMARKS
QUINCY         PTSUNNY   52  50  93 NE5       30.25R FOG
GALESBURG*     SUNNY     51  50  98 CALM      30.25S
MACOMB*        SUNNY     52  50  95 N3        30.27S
JACKSONVILLE*  SUNNY     55  52  90 N6        30.25R
PITTSFIELD*    SUNNY     55  50  82 N5        30.25S
$$

ILZ028>032-037-038-041>044-048-051>054-059>061-161500-
CENTRAL ILLINOIS

CITY           SKY/WX    TMP DP  RH WIND       PRES   REMARKS
PONTIAC        MOSUNNY   52  52 100 CALM      30.23S
DECATUR        CLOUDY    56  51  84 NE8       30.23S
PEORIA         SUNNY     53  49  86 N3        30.25R
LACON*         MOSUNNY   48  47  97 CALM      30.24S
LINCOLN*       MOSUNNY   54  51  88 CALM      30.23R
SPRINGFIELD    PTSUNNY   54  50  86 NE5       30.25R FOG
TAYLORVILLE    PTSUNNY   54  52  94 N5        30.23S FOG
$$

ILZ033-039-045-046-055>057-062-063-161500-
EAST-CENTRAL ILLINOIS

CITY           SKY/WX    TMP DP  RH WIND       PRES   REMARKS
CHAMPAIGN      SUNNY     56  50  80 N5        30.22S
DANVILLE*      CLOUDY    55  52  90 N5        30.19S
RANTOUL*       SUNNY     56  49  77 N5        30.23R
MATTOON        CLOUDY    56  51  84 NE10      30.21S
PARIS*         CLOUDY    55  53  92 CALM      30.23R
$$

ILZ079-100>102-161500-
SOUTHWEST ILLINOIS

CITY           SKY/WX    TMP DP  RH WIND       PRES   REMARKS
ALTON          CLOUDY    57  54  88 NE9       30.23S
BELLEVILLE     PTSUNNY   59  54  82 N7        30.22R
CAHOKIA*       MOSUNNY   60  53  77 E5        30.23S
SPARTA*        MOSUNNY   58  53  84 NE7       30.23S
$$

ILZ064>066-069>071-074>076-080>082-084>086-088>090-092>094-161500-
SOUTH-CENTRAL ILLINOIS

CITY           SKY/WX    TMP DP  RH WIND       PRES   REMARKS
CARBONDALE     CLOUDY    58  52  80 N7        30.22R
CAIRO*         CLOUDY    63  55  77 N9        30.18F
EFFINGHAM*     CLOUDY    57  52  84 CALM      30.22S HAZE
MARION         CLOUDY    59  54  82 N8        30.22R
MT. VERNON     CLOUDY    55  50  82 NE6       30.23R
CENTRALIA*     CLOUDY    56  51  83 NE6       30.22S
SALEM*         CLOUDY    59  55  87 NE3       30.22S
METROPOLIS*    CLOUDY    62  55  79 N8        30.18S
$$

ILZ067-068-072-073-078-083-087-091-161500-
SOUTHEAST ILLINOIS

CITY           SKY/WX    TMP DP  RH WIND       PRES   REMARKS
LAWRENCEVILLE  CLOUDY    59  54  83 N10       30.21R
FLORA*         SUNNY     56  51  83 NE7       30.22S
FAIRFIELD*     CLOUDY   N/A N/A N/A N6        30.21R
HARRISBURG*    CLOUDY    60  55  85 N8        30.21R
ROBINSON*      CLOUDY    58  56  93 N5        30.22S FOG
CARMI*         CLOUDY    61  57  87 N7        30.20R
$$

ABBREVIATIONS USED IN REMARKS
   TC - TEMPERATURE IN CELSIUS
  WCI - WIND CHILL INDEX
   HX - HEAT INDEX
  VSB - VISIBILITY
$$




USA.gov is the U.S. government's official web portal to all federal, state and local government web resources and services.